| time (UTC) | temp F | wind direction | speed MPH | gust MPH | rain 1hr in | rain 24hr in | rain mn in | humidity % | barometer mb |
| 20260504004605 | 76 | 313 | 4.0 | 10.0 | 0.00 | 0.00 | 0.00 | 20 | 1009.7 |
| 20260504004041 | 76 | 296 | 6.0 | 10.0 | 0.00 | 0.00 | 0.00 | 20 | 1009.7 |
| 20260504003537 | 76 | 270 | 4.0 | 12.0 | 0.00 | 0.00 | 0.00 | 21 | 1009.7 |
| 20260504003048 | 76 | 275 | 6.0 | 12.0 | 0.00 | 0.00 | 0.00 | 20 | 1009.7 |
| 20260504002538 | 76 | 292 | 6.0 | 12.0 | 0.00 | 0.00 | 0.00 | 21 | 1009.7 |
| 20260504002037 | 76 | 283 | 1.0 | 6.0 | 0.00 | 0.00 | 0.00 | 21 | 1009.8 |
| 20260504001558 | 76 | 59 | 0.0 | 6.0 | 0.00 | 0.00 | 0.00 | 21 | 1009.8 |
| 20260504001038 | 76 | 330 | 3.0 | 9.0 | 0.00 | 0.00 | 0.00 | 21 | 1009.8 |
| 20260504000538 | 76 | 315 | 2.0 | 9.0 | 0.00 | 0.00 | 0.00 | 21 | 1009.8 |
| 20260504000054 | 77 | 15 | 5.0 | 9.0 | 0.00 | 0.00 | 0.00 | 21 | 1009.9 |
| 20260503235539 | 77 | 309 | 3.0 | 8.0 | 0.00 | 0.00 | 0.00 | 23 | 1009.9 |
| 20260503235038 | 77 | 273 | 2.0 | 8.0 | 0.00 | 0.00 | 0.00 | 22 | 1009.9 |
| 20260503234547 | 77 | 223 | 5.0 | 8.0 | 0.00 | 0.00 | 0.00 | 21 | 1009.9 |
| 20260503234039 | 77 | 284 | 4.0 | 8.0 | 0.00 | 0.00 | 0.00 | 21 | 1010.1 |
| 20260503233541 | 77 | 236 | 3.0 | 9.0 | 0.00 | 0.00 | 0.00 | 23 | 1010.0 |
| 20260503233050 | 77 | 288 | 3.0 | 11.0 | 0.00 | 0.00 | 0.00 | 21 | 1010.0 |
| 20260503232541 | 77 | 236 | 5.0 | 12.0 | 0.00 | 0.00 | 0.00 | 21 | 1010.1 |
| 20260503232037 | 77 | 274 | 8.0 | 12.0 | 0.00 | 0.00 | 0.00 | 21 | 1010.1 |
| 20260503231556 | 77 | 332 | 6.0 | 12.0 | 0.00 | 0.00 | 0.00 | 21 | 1010.1 |
| 20260503231038 | 77 | 348 | 4.0 | 8.0 | 0.00 | 0.00 | 0.00 | 22 | 1010.2 |
| 20260503230538 | 77 | 0 | 1.0 | 9.0 | 0.00 | 0.00 | 0.00 | 23 | 1010.1 |
| 20260503230057 | 77 | 0 | 1.0 | 9.0 | 0.00 | 0.00 | 0.00 | 20 | 1010.2 |
| 20260503225537 | 77 | 274 | 3.0 | 11.0 | 0.00 | 0.00 | 0.00 | 21 | 1010.2 |
| 20260503225038 | 77 | 0 | 2.0 | 11.0 | 0.00 | 0.00 | 0.00 | 21 | 1010.4 |
| 20260503224548 | 77 | 289 | 7.0 | 11.0 | 0.00 | 0.00 | 0.00 | 21 | 1010.4 |
| 20260503224039 | 77 | 273 | 3.0 | 8.0 | 0.00 | 0.00 | 0.00 | 22 | 1010.5 |
| 20260503223538 | 77 | 252 | 2.0 | 6.0 | 0.00 | 0.00 | 0.00 | 21 | 1010.6 |
| 20260503223051 | 77 | 0 | 2.0 | 6.0 | 0.00 | 0.00 | 0.00 | 22 | 1010.7 |
| 20260503222537 | 78 | 26 | 1.0 | 11.0 | 0.00 | 0.00 | 0.00 | 23 | 1010.8 |
| 20260503222039 | 78 | 0 | 1.0 | 11.0 | 0.00 | 0.00 | 0.00 | 23 | 1010.8 |
| 20260503221551 | 78 | 319 | 7.0 | 13.0 | 0.00 | 0.00 | 0.00 | 20 | 1010.9 |
| 20260503221038 | 79 | 285 | 3.0 | 13.0 | 0.00 | 0.00 | 0.00 | 21 | 1011.0 |
| 20260503220538 | 79 | 261 | 8.0 | 13.0 | 0.00 | 0.00 | 0.00 | 22 | 1011.1 |
| 20260503220047 | 79 | 170 | 6.0 | 10.0 | 0.00 | 0.00 | 0.00 | 25 | 1011.1 |
| 20260503215539 | 79 | 339 | 2.0 | 8.0 | 0.00 | 0.00 | 0.00 | 21 | 1011.3 |
| 20260503215038 | 79 | 309 | 2.0 | 8.0 | 0.00 | 0.00 | 0.00 | 22 | 1011.4 |
| 20260503214548 | 78 | 180 | 3.0 | 15.0 | 0.00 | 0.00 | 0.00 | 22 | 1011.5 |
| 20260503214043 | 78 | 248 | 4.0 | 15.0 | 0.00 | 0.00 | 0.00 | 21 | 1011.6 |
| 20260503213539 | 78 | 309 | 7.0 | 14.0 | 0.00 | 0.00 | 0.00 | 21 | 1011.8 |
| 20260503213059 | 78 | 307 | 4.0 | 9.0 | 0.00 | 0.00 | 0.00 | 20 | 1011.8 |
| 20260503212538 | 79 | 14 | 5.0 | 9.0 | 0.00 | 0.00 | 0.00 | 22 | 1011.8 |
| 20260503212038 | 79 | 338 | 5.0 | 9.0 | 0.00 | 0.00 | 0.00 | 21 | 1011.9 |
| 20260503211552 | 79 | 237 | 4.0 | 11.0 | 0.00 | 0.00 | 0.00 | 19 | 1012.1 |
| 20260503211038 | 79 | 206 | 4.0 | 11.0 | 0.00 | 0.00 | 0.00 | 19 | 1012.1 |
| 20260503210540 | 79 | 212 | 4.0 | 10.0 | 0.00 | 0.00 | 0.00 | 20 | 1012.1 |
| 20260503210055 | 79 | 257 | 4.0 | 10.0 | 0.00 | 0.00 | 0.00 | 20 | 1012.2 |
| 20260503205538 | 79 | 194 | 6.0 | 9.0 | 0.00 | 0.00 | 0.00 | 19 | 1012.2 |
| 20260503205038 | 79 | 272 | 3.0 | 11.0 | 0.00 | 0.00 | 0.00 | 21 | 1012.3 |
| 20260503204552 | 78 | 261 | 4.0 | 11.0 | 0.00 | 0.00 | 0.00 | 19 | 1012.3 |
| 20260503204038 | 78 | 288 | 5.0 | 11.0 | 0.00 | 0.00 | 0.00 | 20 | 1012.4 |
| 20260503203539 | 78 | 225 | 4.0 | 9.0 | 0.00 | 0.00 | 0.00 | 20 | 1012.4 |
| 20260503203043 | 78 | 264 | 1.0 | 9.0 | 0.00 | 0.00 | 0.00 | 19 | 1012.6 |
| 20260503202538 | 78 | 360 | 4.0 | 9.0 | 0.00 | 0.00 | 0.00 | 20 | 1012.7 |
| 20260503202037 | 79 | 284 | 3.0 | 8.0 | 0.00 | 0.00 | 0.00 | 19 | 1012.9 |
| 20260503201548 | 79 | 315 | 4.0 | 8.0 | 0.00 | 0.00 | 0.00 | 18 | 1012.8 |
| 20260503201039 | 79 | 273 | 3.0 | 8.0 | 0.00 | 0.00 | 0.00 | 20 | 1012.9 |
| 20260503200537 | 78 | 193 | 2.0 | 7.0 | 0.00 | 0.00 | 0.00 | 18 | 1012.9 |
| 20260503200057 | 78 | 216 | 1.0 | 8.0 | 0.00 | 0.00 | 0.00 | 21 | 1013.0 |
| 20260503195538 | 77 | 160 | 4.0 | 9.0 | 0.00 | 0.00 | 0.00 | 25 | 1013.1 |
| 20260503195039 | 78 | 112 | 4.0 | 10.0 | 0.00 | 0.00 | 0.00 | 23 | 1013.1 |
| 20260503194547 | 78 | 168 | 5.0 | 10.0 | 0.00 | 0.00 | 0.00 | 23 | 1013.2 |
| 20260503194038 | 77 | 180 | 3.0 | 7.0 | 0.00 | 0.00 | 0.00 | 23 | 1013.3 |
| 20260503193538 | 77 | 284 | 2.0 | 10.0 | 0.00 | 0.00 | 0.00 | 24 | 1013.3 |
| 20260503193053 | 76 | 86 | 0.0 | 10.0 | 0.00 | 0.00 | 0.00 | 23 | 1013.3 |
| 20260503192539 | 77 | 192 | 6.0 | 10.0 | 0.00 | 0.00 | 0.00 | 23 | 1013.5 |
| 20260503192039 | 77 | 211 | 3.0 | 8.0 | 0.00 | 0.00 | 0.00 | 26 | 1013.5 |
| 20260503191615 | 77 | 209 | 3.0 | 7.0 | 0.00 | 0.00 | 0.00 | 24 | 1013.5 |
| 20260503191037 | 76 | 172 | 4.0 | 7.0 | 0.00 | 0.00 | 0.00 | 26 | 1013.4 |
| 20260503190542 | 76 | 246 | 1.0 | 9.0 | 0.00 | 0.00 | 0.00 | 25 | 1013.6 |
| 20260503190052 | 76 | 263 | 0.0 | 9.0 | 0.00 | 0.00 | 0.00 | 24 | 1013.6 |
| 20260503185544 | 76 | 53 | 3.0 | 9.0 | 0.00 | 0.00 | 0.00 | 24 | 1013.7 |
| 20260503185038 | 76 | 47 | 1.0 | 8.0 | 0.00 | 0.00 | 0.00 | 24 | 1013.9 |
| 20260503184558 | 76 | 159 | 3.0 | 8.0 | 0.00 | 0.00 | 0.00 | 29 | 1013.9 |
| 20260503184045 | 76 | 252 | 4.0 | 8.0 | 0.00 | 0.00 | 0.00 | 26 | 1013.9 |
| 20260503183538 | 75 | 141 | 2.0 | 7.0 | 0.00 | 0.00 | 0.00 | 27 | 1014.1 |
| 20260503183102 | 75 | 0 | 2.0 | 8.0 | 0.00 | 0.00 | 0.00 | 28 | 1014.2 |
| 20260503182537 | 75 | 150 | 2.0 | 8.0 | 0.00 | 0.00 | 0.00 | 27 | 1014.2 |
| 20260503182038 | 75 | 170 | 2.0 | 8.0 | 0.00 | 0.00 | 0.00 | 28 | 1014.3 |
| 20260503181547 | 75 | 0 | 3.0 | 9.0 | 0.00 | 0.00 | 0.00 | 27 | 1014.4 |
| 20260503181038 | 75 | 130 | 3.0 | 9.0 | 0.00 | 0.00 | 0.00 | 28 | 1014.5 |
| 20260503180542 | 75 | 5 | 2.0 | 7.0 | 0.00 | 0.00 | 0.00 | 26 | 1014.5 |
| 20260503180053 | 74 | 219 | 1.0 | 8.0 | 0.00 | 0.00 | 0.00 | 28 | 1014.6 |
| 20260503175540 | 74 | 0 | 1.0 | 8.0 | 0.00 | 0.00 | 0.00 | 27 | 1014.6 |
| 20260503175043 | 73 | 159 | 2.0 | 15.0 | 0.00 | 0.00 | 0.00 | 28 | 1014.7 |
| 20260503174632 | 73 | 153 | 5.0 | 15.0 | 0.00 | 0.00 | 0.00 | 27 | 1014.7 |
| 20260503174039 | 73 | 134 | 6.0 | 15.0 | 0.00 | 0.00 | 0.00 | 29 | 1014.7 |
| 20260503173539 | 72 | 212 | 2.0 | 9.0 | 0.00 | 0.00 | 0.00 | 28 | 1014.8 |
| 20260503173112 | 72 | 225 | 5.0 | 9.0 | 0.00 | 0.00 | 0.00 | 29 | 1014.8 |
| 20260503172539 | 72 | 218 | 3.0 | 7.0 | 0.00 | 0.00 | 0.00 | 30 | 1015.0 |
| 20260503172039 | 71 | 113 | 1.0 | 6.0 | 0.00 | 0.00 | 0.00 | 30 | 1014.9 |
| 20260503171550 | 71 | 122 | 1.0 | 7.0 | 0.00 | 0.00 | 0.00 | 31 | 1015.0 |
| 20260503171038 | 71 | 65 | 2.0 | 8.0 | 0.00 | 0.00 | 0.00 | 30 | 1015.0 |
| 20260503170538 | 70 | 88 | 2.0 | 8.0 | 0.00 | 0.00 | 0.00 | 30 | 1015.0 |
| 20260503150538 | 60 | 140 | 1.0 | 7.0 | 0.00 | 0.00 | 0.00 | 42 | 1015.6 |
| 20260503131043 | 43 | 0 | 0.0 | 0.0 | 0.00 | 0.00 | 0.00 | 64 | 1015.1 |
| 20260503130540 | 42 | 0 | 0.0 | 0.0 | 0.00 | 0.00 | 0.00 | 64 | 1015.1 |
| 20260503120111 | 44 | 360 | 1.0 | 2.0 | 0.00 | 0.00 | 0.00 | 63 | 1015.0 |
| 20260503110537 | 45 | 0 | 0.0 | 0.0 | 0.00 | 0.00 | 0.00 | 62 | 1015.5 |
| 20260503081550 | 50 | 360 | 3.0 | 5.0 | 0.00 | 0.00 | 0.00 | 55 | 1015.5 |
| 20260503081039 | 50 | 360 | 2.0 | 5.0 | 0.00 | 0.00 | 0.00 | 57 | 1015.5 |
| 20260503080543 | 49 | 360 | 2.0 | 5.0 | 0.00 | 0.00 | 0.00 | 57 | 1015.5 |
| 20260503072540 | 47 | 360 | 2.0 | 4.0 | 0.00 | 0.00 | 0.00 | 58 | 1015.5 |
| 20260503072041 | 47 | 360 | 2.0 | 4.0 | 0.00 | 0.00 | 0.00 | 58 | 1015.5 |
| 20260503071550 | 48 | 360 | 1.0 | 4.0 | 0.00 | 0.00 | 0.00 | 58 | 1015.5 |
| 20260503071039 | 48 | 360 | 2.0 | 4.0 | 0.00 | 0.00 | 0.00 | 58 | 1015.5 |
| 20260503070541 | 48 | 360 | 2.0 | 4.0 | 0.00 | 0.00 | 0.00 | 58 | 1015.5 |
| 20260503055039 | 50 | 360 | 1.0 | 4.0 | 0.00 | 0.00 | 0.00 | 54 | 1015.3 |
| 20260503054548 | 50 | 360 | 2.0 | 4.0 | 0.00 | 0.00 | 0.00 | 55 | 1015.3 |
| 20260503054041 | 50 | 360 | 2.0 | 4.0 | 0.00 | 0.00 | 0.00 | 54 | 1015.2 |
| 20260503053541 | 51 | 360 | 2.0 | 4.0 | 0.00 | 0.00 | 0.00 | 53 | 1015.2 |
| 20260503053054 | 51 | 360 | 2.0 | 4.0 | 0.00 | 0.00 | 0.00 | 53 | 1015.2 |
| 20260503052540 | 51 | 360 | 2.0 | 4.0 | 0.00 | 0.00 | 0.00 | 52 | 1015.3 |
| 20260503052038 | 52 | 360 | 2.0 | 4.0 | 0.00 | 0.00 | 0.00 | 51 | 1015.4 |
| 20260503051551 | 52 | 360 | 2.0 | 4.0 | 0.00 | 0.00 | 0.00 | 50 | 1015.4 |
| 20260503051037 | 52 | 360 | 2.0 | 4.0 | 0.00 | 0.00 | 0.00 | 50 | 1015.5 |
| 20260503050539 | 53 | 360 | 2.0 | 4.0 | 0.00 | 0.00 | 0.00 | 50 | 1015.5 |
| 20260503050052 | 53 | 360 | 3.0 | 5.0 | 0.00 | 0.00 | 0.00 | 48 | 1015.5 |
| 20260503045540 | 53 | 360 | 3.0 | 5.0 | 0.00 | 0.00 | 0.00 | 48 | 1015.5 |
| 20260503045043 | 53 | 360 | 3.0 | 5.0 | 0.00 | 0.00 | 0.00 | 46 | 1015.5 |
| 20260503044550 | 53 | 360 | 3.0 | 5.0 | 0.00 | 0.00 | 0.00 | 48 | 1015.6 |
| 20260503044038 | 53 | 360 | 3.0 | 5.0 | 0.00 | 0.00 | 0.00 | 46 | 1015.6 |
| 20260503043538 | 53 | 360 | 3.0 | 5.0 | 0.00 | 0.00 | 0.00 | 47 | 1015.7 |
| 20260503043049 | 53 | 360 | 3.0 | 5.0 | 0.00 | 0.00 | 0.00 | 46 | 1015.7 |
| 20260503042537 | 54 | 360 | 3.0 | 5.0 | 0.00 | 0.00 | 0.00 | 47 | 1015.7 |
| 20260503042038 | 54 | 360 | 3.0 | 5.0 | 0.00 | 0.00 | 0.00 | 45 | 1015.7 |
| 20260503041604 | 55 | 360 | 3.0 | 5.0 | 0.00 | 0.00 | 0.00 | 47 | 1015.7 |
| 20260503041039 | 55 | 360 | 3.0 | 5.0 | 0.00 | 0.00 | 0.00 | 45 | 1015.8 |
| 20260503040538 | 55 | 360 | 3.0 | 5.0 | 0.00 | 0.00 | 0.00 | 44 | 1015.7 |
| 20260503040058 | 56 | 360 | 3.0 | 5.0 | 0.00 | 0.00 | 0.00 | 44 | 1015.7 |
| 20260503035537 | 56 | 360 | 3.0 | 5.0 | 0.00 | 0.00 | 0.00 | 44 | 1015.8 |
| 20260503035037 | 57 | 360 | 3.0 | 5.0 | 0.00 | 0.00 | 0.00 | 43 | 1015.7 |
| 20260503034605 | 57 | 360 | 2.0 | 4.0 | 0.00 | 0.00 | 0.00 | 45 | 1015.7 |
| 20260503034037 | 58 | 360 | 2.0 | 4.0 | 0.00 | 0.00 | 0.00 | 44 | 1015.6 |
| 20260503033537 | 58 | 360 | 2.0 | 4.0 | 0.00 | 0.00 | 0.00 | 42 | 1015.7 |
| 20260503033053 | 58 | 360 | 2.0 | 4.0 | 0.00 | 0.00 | 0.00 | 40 | 1015.7 |
| 20260503032537 | 59 | 360 | 2.0 | 4.0 | 0.00 | 0.00 | 0.00 | 38 | 1015.6 |
| 20260503032037 | 59 | 360 | 2.0 | 5.0 | 0.00 | 0.00 | 0.00 | 37 | 1015.6 |
| 20260503031552 | 59 | 360 | 3.0 | 5.0 | 0.00 | 0.00 | 0.00 | 39 | 1015.5 |
| 20260503031039 | 60 | 360 | 3.0 | 5.0 | 0.00 | 0.00 | 0.00 | 38 | 1015.5 |
| 20260503030538 | 60 | 360 | 3.0 | 5.0 | 0.00 | 0.00 | 0.00 | 37 | 1015.6 |
| 20260503030054 | 60 | 360 | 3.0 | 5.0 | 0.00 | 0.00 | 0.00 | 36 | 1015.5 |
| 20260503025538 | 60 | 360 | 2.0 | 4.0 | 0.00 | 0.00 | 0.00 | 37 | 1015.6 |
| 20260503025037 | 61 | 360 | 2.0 | 4.0 | 0.00 | 0.00 | 0.00 | 37 | 1015.5 |
| 20260503024554 | 61 | 360 | 3.0 | 6.0 | 0.00 | 0.00 | 0.00 | 38 | 1015.6 |
| 20260503024039 | 62 | 350 | 3.0 | 6.0 | 0.00 | 0.00 | 0.00 | 35 | 1015.5 |
| 20260503023539 | 62 | 325 | 3.0 | 6.0 | 0.00 | 0.00 | 0.00 | 35 | 1015.5 |
| 20260503023056 | 62 | 355 | 4.0 | 6.0 | 0.00 | 0.00 | 0.00 | 33 | 1015.5 |
| 20260503022537 | 63 | 352 | 4.0 | 6.0 | 0.00 | 0.00 | 0.00 | 34 | 1015.5 |
| 20260503022040 | 64 | 352 | 4.0 | 9.0 | 0.00 | 0.00 | 0.00 | 35 | 1015.5 |
| 20260503021549 | 65 | 341 | 3.0 | 9.0 | 0.00 | 0.00 | 0.00 | 35 | 1015.5 |
| 20260503021040 | 66 | 348 | 4.0 | 6.0 | 0.00 | 0.00 | 0.00 | 35 | 1015.5 |
| 20260503020537 | 67 | 360 | 2.0 | 5.0 | 0.00 | 0.00 | 0.00 | 33 | 1015.4 |
| 20260503020049 | 68 | 0 | 2.0 | 5.0 | 0.00 | 0.00 | 0.00 | 29 | 1015.5 |
| 20260503015540 | 68 | 308 | 2.0 | 6.0 | 0.00 | 0.00 | 0.00 | 30 | 1015.4 |
| 20260503015037 | 69 | 331 | 1.0 | 6.0 | 0.00 | 0.00 | 0.00 | 32 | 1015.4 |
| 20260503014554 | 69 | 343 | 2.0 | 6.0 | 0.00 | 0.00 | 0.00 | 29 | 1015.4 |
| 20260503014042 | 70 | 315 | 3.0 | 8.0 | 0.00 | 0.00 | 0.00 | 26 | 1015.4 |
| 20260503013538 | 70 | 323 | 3.0 | 8.0 | 0.00 | 0.00 | 0.00 | 28 | 1015.4 |
| 20260503013056 | 70 | 329 | 4.0 | 8.0 | 0.00 | 0.00 | 0.00 | 26 | 1015.4 |
| 20260503012538 | 71 | 315 | 3.0 | 8.0 | 0.00 | 0.00 | 0.00 | 25 | 1015.4 |
| 20260503012038 | 71 | 355 | 4.0 | 8.0 | 0.00 | 0.00 | 0.00 | 26 | 1015.5 |
| 20260503011548 | 71 | 315 | 3.0 | 7.0 | 0.00 | 0.00 | 0.00 | 25 | 1015.6 |
| 20260503011038 | 71 | 315 | 4.0 | 9.0 | 0.00 | 0.00 | 0.00 | 25 | 1015.6 |
| 20260503010540 | 71 | 329 | 3.0 | 9.0 | 0.00 | 0.00 | 0.00 | 26 | 1015.5 |
| 20260503010050 | 72 | 323 | 5.0 | 9.0 | 0.00 | 0.00 | 0.00 | 24 | 1015.6 |
| 20260503005539 | 72 | 338 | 4.0 | 9.0 | 0.00 | 0.00 | 0.00 | 23 | 1015.6 |
| 20260503005042 | 72 | 266 | 4.0 | 9.0 | 0.00 | 0.00 | 0.00 | 23 | 1015.6 |